Location: *
(45.9500°N, 9.0833°E)
Time: 23:17:16
(UTC+00:00)

Tiros 1 despin weight - Pass Details

Date: 25 June 2021
Orbit: 593 x 642 km, 48.2° (Epoch: 02 August)

Event Time Altitude Azimuth Distance (km) Brightness Sun altitude
Rises 01:58:21 0° 198° (SSW) 2,841 - -12.6°
Reaches altitude 10° 02:01:18 10° 179° (S) 1,934 - -12.3°
Exits shadow 02:01:32 11° 176° (S) 1,874 ? -12.2°
Maximum altitude 02:04:11 17° 138° (SE) 1,517 ? -12.0°
Drops below altitude 10° 02:07:04 10° 97° (E) 1,928 ? -11.7°
Sets 02:09:59 0° 77° (ENE) 2,829 ? -11.4°
